Voltar ao catálogo

YZ-1 R/B

AtivoMEO
NORAD 44866·ROCKET BODY·🇨🇳 China

Lançado Dec 16, 2019 de Xichang Satellite Launch Center

Loading…

Próximas Passagens (próximas 24 horas)

TLE

AtualizadoSource: Space-Track

Época: Sep 12, 2026, 18:33 UTC

1 44866U 19090C   26255.77344428 -.00000023  00000-0  00000-0 0  9992
2 44866  56.4653  66.8883 0071363  42.7055 317.8726  1.78364354 43935

Acompanhe YZ-1 R/B em tempo real com AllMySat

Download on the App Store